CDT,Max TemperatureF,Mean TemperatureF,Min TemperatureF,Max Dew PointF,MeanDew PointF,Min DewpointF,Max Humidity, Mean Humidity, Min Humidity, Max Sea Level PressureIn, Mean Sea Level PressureIn, Min Sea Level PressureIn, Max VisibilityMiles, Mean VisibilityMiles, Min VisibilityMiles, Max Wind SpeedMPH, Mean Wind SpeedMPH, Max Gust SpeedMPH,PrecipitationIn, CloudCover, Events, WindDirDegrees
2011-10-1,64,50,35,39,34,31,91,59,29,30.37,30.30,30.25,10,10,10,9,4,,0.00,0,,111
2011-10-2,75,56,38,38,35,32,83,53,22,30.29,30.24,30.17,10,10,10,8,3,,0.00,0,,169
2011-10-3,77,59,41,41,33,22,77,40,13,30.26,30.21,30.17,10,10,10,9,3,,0.00,0,,166
2011-10-4,83,64,45,44,38,33,69,43,21,30.22,30.17,30.10,10,10,10,17,6,23,0.00,0,,150
2011-10-5,82,66,50,45,42,34,79,47,19,30.17,30.12,30.06,10,10,10,15,6,22,0.00,0,,157
2011-10-6,80,64,48,46,41,36,80,47,20,30.12,30.07,30.00,10,10,10,20,9,26,0.00,0,,138
2011-10-7,81,69,57,56,52,48,74,53,40,30.06,30.03,29.99,10,10,10,22,12,37,0.00,2,,157
2011-10-8,82,72,62,56,53,49,66,52,39,30.16,30.11,30.06,10,10,10,15,11,26,0.00,1,,164
2011-10-9,79,66,52,53,49,45,83,58,30,30.24,30.18,30.12,10,10,10,18,7,24,0.00,0,,139
2011-10-10,71,61,51,56,50,47,94,72,44,30.12,30.05,29.97,10,10,7,10,6,,0.00,1,Rain,158
2011-10-11,76,61,47,60,51,46,97,74,37,29.98,29.91,29.82,10,6,0,16,5,21,0.01,3,Fog,160
2011-10-12,67,59,51,59,54,48,94,86,71,29.82,29.73,29.66,10,9,3,15,5,20,0.47,4,Rain,147
2011-10-13,67,58,48,52,44,34,93,66,36,29.76,29.72,29.69,10,10,10,22,11,32,0.00,1,Rain,298
2011-10-14,60,52,45,41,36,28,75,55,31,29.94,29.84,29.75,10,10,10,28,14,36,0.00,1,,297
2011-10-15,66,52,39,37,34,27,87,54,23,30.04,29.94,29.80,10,10,10,16,10,22,0.00,1,,266
2011-10-16,60,52,44,41,33,25,81,53,27,30.02,29.95,29.78,10,10,10,18,9,30,0.00,0,,325
2011-10-17,57,45,33,36,29,21,75,52,26,30.02,29.98,29.91,10,10,10,18,8,25,0.00,1,,288
2011-10-18,48,40,33,34,30,27,87,65,43,30.04,29.99,29.91,10,10,10,22,12,29,0.00,2,,334
2011-10-19,48,40,33,34,31,28,87,71,54,30.04,30.01,29.99,10,10,7,21,13,29,0.00,7,Rain,352
2011-10-20,53,43,33,32,28,25,87,60,33,30.03,29.97,29.94,10,10,10,23,13,30,0.00,1,,326
2011-10-21,64,46,28,34,30,25,86,56,28,30.12,30.07,30.03,10,10,10,13,5,17,0.00,0,,248
2011-10-22,64,52,41,39,35,32,81,57,32,30.14,30.08,30.01,10,10,10,12,6,,0.00,1,,340
2011-10-23,73,58,42,45,39,36,87,57,29,30.02,29.94,29.83,10,10,7,16,5,22,0.00,2,,262
2011-10-24,71,55,39,41,38,36,93,59,27,30.11,30.03,29.88,10,9,2,13,6,20,0.00,0,,223
2011-10-25,75,60,46,48,44,39,76,54,36,29.96,29.78,29.68,10,10,5,24,12,30,0.00,0,,256
2011-10-26,51,45,39,39,36,34,87,72,50,30.09,30.04,29.94,10,10,10,20,13,28,0.00,4,,358
2011-10-27,53,44,35,36,26,16,87,52,22,30.14,30.10,30.07,10,10,10,16,6,22,0.00,1,,311
2011-10-28,55,44,33,30,22,18,70,45,23,30.14,30.11,30.08,10,10,10,18,8,25,0.00,0,,265
2011-10-29,57,42,28,23,21,19,69,45,23,30.12,30.04,29.91,10,10,10,15,6,18,0.00,0,,187
2011-10-30,53,48,44,36,31,23,71,52,33,29.97,29.89,29.81,10,10,10,23,12,34,0.00,3,Rain,271
2011-10-31,55,42,30,32,28,25,86,62,31,30.10,30.04,29.99,10,10,10,10,5,,0.00,0,,229